Regional Weather Roundup
Issued by NWS

Home | Current Version | Previous Version | Text Only | Print | Product List | Glossary Off
Versions: 1 2 3 4 5 6 7 8 9 10 11 12 13 14 15 16 17 18 19 20 21 22 23 24 25 26 27

000
ASUS45 KCYS 252210
RWRWY

WYOMING REGIONAL WEATHER ROUNDUP
NATIONAL WEATHER SERVICE CHEYENNE WY
400 PM MDT TUE APR 25 2017

NOTE:  "FAIR" INDICATES FEW OR NO CLOUDS BELOW 12,000 FEET
WITH NO SIGNIFICANT WEATHER AND/OR OBSTRUCTIONS TO VISIBILITY.

WYZ001-252300-
YELLOWSTONE NATIONAL PARK

CITY           SKY/WX    TMP DP  RH WIND       PRES   REMARKS
LK YELLOWSTONE   N/A     38  23  55 NW8       29.80S WCI  32
W YELLOWSTONE  NOT AVBL

$$
WYZ002>013-054>058-071-098>099-252300-
NORTHERN WYOMING

CITY           SKY/WX    TMP DP  RH WIND       PRES   REMARKS
JACKSON        PTSUNNY   46  28  49 NW12G23   29.76S
CODY           PTSUNNY   42  32  67 NW12      29.81F
GREYBULL       PTSUNNY   49  29  46 NW23      29.76F
WORLAND        FAIR      49  36  61 N20G26    29.76S
SHERIDAN       CLOUDY    35  30  82 NW9       29.86S HAZE    WCI  28
BUFFALO        NOT AVBL
GILLETTE       LGT SNOW  29  29 100 N16       29.81S WCI  17
HULETT         LGT SNOW  28  25  86 N6        29.83S VSB 1   WCI  22
NEWCASTLE      LGT SNOW  32  32 100 N12       29.74S VSB 3/4 WCI  23

$$
WYZ014>020-022>026-101>103-252300-
CENTRAL WYOMING

CITY           SKY/WX    TMP DP  RH WIND       PRES   REMARKS
BIG PINEY      LGT RAIN  42  30  62 N17G24    29.77R
PINEDALE       FLURRIES  41  28  60 N10       29.76S
DUBOIS         CLOUDY    43  19  39 SE8       29.74R
LANDER         CLOUDY    39  33  79 W12       29.79S WCI  32
RIVERTON       FAIR      44  31  60 N14G22    29.78F
CASPER         CLOUDY    32  26  78 N13       29.81R WCI  22
DOUGLAS        FLURRIES  31  25  78 NW22      29.78R WCI  18

$$
WYZ021-027>030-104>119-252300-
SOUTHERN WYOMING

CITY           SKY/WX    TMP DP  RH WIND       PRES   REMARKS
EVANSTON       PTSUNNY   41  27  57 NW17G25   29.82R
KEMMERER         N/A     41  32  70 W18G26    29.79F
FORT BRIDGER   CLOUDY    45  29  54 NW18G28   29.82S
ROCK SPRINGS   LGT SNOW  34  31  88 N9        29.79R FOG     WCI  27
DIXON            N/A     45  32  61 NW10G18   29.75S
RAWLINS        CLOUDY    39  28  64 N12       29.76S WCI  32
SARATOGA       CLOUDY    36  28  75 NW17G23   29.76S WCI  25
LARAMIE        CLOUDY    35  27  72 NW22G30   29.70R WCI  23
CHEYENNE       FAIR      46  27  47 NW22G35   29.65R
TORRINGTON     CLOUDY    41  34  76 N12G20    29.69R
PINE BLUFFS    MOCLDY    46  36  66 N24G31    29.62S

$$




USA.gov is the U.S. government's official web portal to all federal, state and local government web resources and services.